Location: Aufkirchen
(47.9603°N, 11.3653°E)
Time: 14:45:47
(UTC+01:00)

CAS-4A - Visible Passes

Search period start: 17 January 2021 00:00
Search period end: 27 January 2021 00:00
Orbit: 528 x 544 km, 43.0° (Epoch: 17 January)

Date Brightness Start Highest point End Pass type
(mag) Time Alt. Az. Time Alt. Az. Time Alt. Az.
17 Jan ? 17:25:02 10° WSW 17:28:55 42° S 17:32:51 10° ESE visible
17 Jan ? 19:04:58 10° WSW 19:08:38 31° SSW 19:09:33 28° S visible
18 Jan ? 18:54:23 10° WSW 18:57:59 28° SSW 18:59:45 21° SSE visible
19 Jan ? 18:43:52 10° WSW 18:47:17 25° SSW 18:50:04 13° SSE visible
20 Jan ? 18:33:21 10° WSW 18:36:36 22° SSW 18:39:51 10° SSE visible
21 Jan ? 18:22:54 10° WSW 18:25:54 20° SSW 18:28:54 10° SSE visible
22 Jan ? 18:12:31 10° WSW 18:15:11 17° SSW 18:17:52 10° SSE visible
23 Jan ? 18:02:15 10° WSW 18:04:27 14° SSW 18:06:40 10° S visible
24 Jan ? 17:52:13 10° SW 17:53:42 12° SSW 17:55:13 10° SSW visible
